Location: Bennemühlen
(52.5740°N, 9.7135°E)
Time: 12:05:08
(UTC+00:00)

Transit 2A - Visible Passes

Search period start: 16 February 2026 00:00
Search period end: 26 February 2026 00:00
Orbit: 589 x 955 km, 66.7° (Epoch: 16 February)

Date Brightness Start Highest point End Pass type
(mag) Time Alt. Az. Time Alt. Az. Time Alt. Az.
16 Feb 7.7 17:59:04 10° NW 18:04:14 26° NNE 18:07:31 17° ENE visible
16 Feb 6.7 19:42:32 10° NW 19:47:52 52° NNE 19:47:52 52° NNE visible
16 Feb 8.4 21:26:01 10° NW 21:28:13 21° WNW 21:28:13 21° WNW visible
17 Feb 7.8 17:22:29 10° NW 17:27:27 24° NNE 17:32:14 10° ENE visible
17 Feb 6.7 19:06:09 10° NW 19:12:06 45° NE 19:12:42 43° NE visible
17 Feb 7.7 20:49:29 10° NW 20:53:03 34° WNW 20:53:03 34° WNW visible
18 Feb 7.1 18:29:44 10° NW 18:35:30 37° NNE 18:37:34 29° ENE visible
18 Feb 6.8 20:13:02 10° NW 20:17:55 56° WNW 20:17:55 56° WNW visible
18 Feb 9.0 21:57:38 10° WNW 21:58:15 12° WNW 21:58:15 12° WNW visible
19 Feb 7.3 17:53:19 10° NW 17:58:50 31° NNE 18:02:28 17° ENE visible
19 Feb 6.1 19:36:36 10° NW 19:42:48 85° NE 19:42:49 85° ENE visible
19 Feb 8.4 21:20:36 10° WNW 21:23:10 19° W 21:23:10 19° W visible
20 Feb 7.5 17:16:50 10° NW 17:22:07 27° NNE 17:27:08 10° ENE visible
20 Feb 6.3 19:00:12 10° NW 19:06:22 66° NE 19:07:46 50° ESE visible
20 Feb 7.8 20:43:51 10° NW 20:48:08 30° W 20:48:08 30° W visible
21 Feb 6.5 18:23:49 10° NW 18:29:52 52° NE 18:32:47 27° ESE visible
21 Feb 7.0 20:07:15 10° NW 20:12:57 44° WSW 20:13:09 44° WSW visible
22 Feb 6.8 17:47:26 10° NW 17:53:17 42° NE 17:57:53 14° ESE visible
22 Feb 6.6 19:30:45 10° NW 19:36:43 60° WSW 19:38:15 45° S visible
22 Feb 8.7 21:16:11 10° WNW 21:18:30 12° W 21:18:36 12° W visible
23 Feb 6.3 18:54:18 10° NW 19:00:25 81° SW 19:03:25 29° SSE visible
23 Feb 8.3 20:38:41 10° WNW 20:42:32 18° WSW 20:43:47 17° WSW visible
24 Feb 6.2 18:17:52 10° NW 18:24:02 78° NE 18:28:40 16° SE visible
24 Feb 8.0 20:01:45 10° NW 20:06:30 25° WSW 20:09:03 18° SSW visible
25 Feb 6.4 17:41:29 10° NW 17:47:34 61° NE 17:53:07 10° SE visible
25 Feb 7.6 19:25:02 10° NW 19:30:24 35° WSW 19:34:27 14° S visible
